Wappingers Falls, NY

3:45 AM EDT on August 31, 2016 (GMT -0400)
Dutchess County

Weather History for KPOU - September, 2011

Change the Weather History Date:

Saturday, September 17, 2011

  Actual Average Record
Temperature  
Mean Temperature 54 °F 63 °F  
Max Temperature 63 °F 75 °F 93 °F (1991)
Min Temperature 44 °F 51 °F 30 °F (1986)
Degree Days  
Heating Degree Days 11 4  
Month to date heating degree days 36 42  
Since 1 July heating degree days 37 59  
Cooling Degree Days 0 2  
Month to date cooling degree days 73 51  
Year to date cooling degree days 861 655  
Growing Degree Days 4 (Base 50)    
Moisture  
Dew Point 45 °F    
Average Humidity 76    
Maximum Humidity 96    
Minimum Humidity 46    
Precipitation  
Precipitation 0.00 in 0.15 in 1.05 in (1980)
Month to date precipitation 5.68 2.37  
Year to date precipitation 45.94 33.15  
Sea Level Pressure  
Sea Level Pressure 30.42 in    
Wind  
Wind Speed 1 mph (NNE)    
Max Wind Speed 8 mph    
Max Gust Speed 13 mph    
Visibility 10 miles    
Events      
T = Trace of Precipitation, MM = Missing Value Source: NWS Daily Summary

Daily Weather History Graph

Daily Weather History Graph

Search for Another Location

Airport or City:

Trip Planner

Search our weather history database for the weather conditions in past years. The results will help you decide how hot, cold, wet, or windy it might be!

Date:

Astronomy

Sep. 17, 2011 Rise Set
Actual Time 6:37 AM EDT 7:01 PM EDT
Civil Twilight 6:09 AM EDT 7:29 PM EDT
Nautical Twilight 5:36 AM EDT 8:02 PM EDT
Astronomical Twilight 5:03 AM EDT 8:35 PM EDT
Moon 9:25 PM EDT (9/17) 11:42 AM EDT (9/17)
Length of Visible Light 13h 20m
Length of Day
12h 24m
Waning Gibbous, 77% of the Moon is Illuminated
Sep 17
Waning Gibbous
Sep 20
Last Quarter
Sep 27
New
Oct 3
First Quarter
Oct 11
Full

Hourly Weather History & Observations

Time (EDT) Temp. Windchill Dew Point Humidity Pressure Visibility Wind Dir Wind Speed Gust Speed Precip Events Conditions
12:53 AM 48.9 °F - 46.0 °F 90% 30.37 in 10.0 mi Calm Calm - N/A   Clear
1:53 AM 48.0 °F - 45.0 °F 89% 30.38 in 10.0 mi Calm Calm - N/A   Clear
2:53 AM 46.9 °F - 45.0 °F 93% 30.38 in 10.0 mi Calm Calm - N/A   Clear
3:53 AM 45.0 °F 43.5 °F 43.0 °F 93% 30.38 in 10.0 mi NE 3.5 mph - N/A   Clear
4:53 AM 45.0 °F - 43.0 °F 93% 30.39 in 10.0 mi Calm Calm - N/A   Clear
5:53 AM 44.1 °F - 42.1 °F 93% 30.41 in 10.0 mi Calm Calm - N/A   Clear
6:53 AM 44.6 °F 43.1 °F 42.8 °F 93% 30.43 in 10.0 mi North 3.5 mph - N/A   Clear
7:53 AM 46.9 °F - 44.1 °F 90% 30.45 in 10.0 mi Calm Calm - N/A   Clear
8:53 AM 50.0 °F - 43.0 °F 77% 30.45 in 10.0 mi North 3.5 mph - N/A   Clear
9:53 AM 54.0 °F - 43.0 °F 66% 30.47 in 10.0 mi Calm Calm - N/A   Clear
10:53 AM 57.0 °F - 42.1 °F 57% 30.46 in 10.0 mi Variable 3.5 mph - N/A   Clear
11:53 AM 57.2 °F - 42.8 °F 59% 30.45 in 10.0 mi SSE 3.5 mph - N/A   Clear
12:53 PM 63.0 °F - 41.0 °F 45% 30.43 in 10.0 mi Variable 3.5 mph - N/A   Clear
1:53 PM 62.6 °F - 41.0 °F 45% 30.42 in 10.0 mi Calm Calm - N/A   Clear
2:53 PM 62.1 °F - 42.1 °F 48% 30.42 in 10.0 mi Calm Calm - N/A   Clear
3:53 PM 62.1 °F - 44.1 °F 52% 30.42 in 10.0 mi Calm Calm - N/A   Clear
4:53 PM 61.0 °F - 45.0 °F 56% 30.41 in 10.0 mi WSW 3.5 mph - N/A   Clear
5:53 PM 60.1 °F - 45.0 °F 57% 30.40 in 10.0 mi Calm Calm - N/A   Clear
6:53 PM 57.0 °F - 50.0 °F 77% 30.40 in 10.0 mi Calm Calm - N/A   Clear
7:53 PM 53.1 °F - 50.0 °F 89% 30.39 in 10.0 mi Calm Calm - N/A   Clear
8:53 PM 52.0 °F - 50.0 °F 93% 30.41 in 10.0 mi Calm Calm - N/A   Mostly Cloudy
9:53 PM 53.1 °F - 50.0 °F 89% 30.43 in 10.0 mi Calm Calm - N/A   Overcast
10:53 PM 53.1 °F - 48.9 °F 86% 30.43 in 10.0 mi Calm Calm - N/A   Overcast
11:53 PM 50.0 °F - 48.0 °F 93% 30.44 in 10.0 mi Calm Calm - N/A   Clear